Hourly Weather Rutka 2

Today, 10 April, Saturday

Time Temperature Precipitation Wind Pressure Humidity
00:00 +2°C° 0 mm 5 mps 742 mmHg 65%
01:00 +2°C° 0 mm 5 mps 742 mmHg 66%
02:00 +2°C° 0 mm 5 mps 742 mmHg 67%
03:00 +1°C° 0 mm 5 mps 742 mmHg 70%
04:00 +1°C° 0 mm 5 mps 742 mmHg 72%
05:00 0°C° 0 mm 5 mps 742 mmHg 74%
06:00 +1°C° 0 mm 5 mps 742 mmHg 72%
07:00 +2°C° 0 mm 5 mps 742 mmHg 69%
08:00 +3°C° 0 mm 6 mps 742 mmHg 67%
09:00 +4°C° 0 mm 6 mps 742 mmHg 62%
10:00 +7°C° 0 mm 6 mps 742 mmHg 57%
11:00 +9°C° 0 mm 7 mps 742 mmHg 52%
12:00 +10°C° 0 mm 7 mps 742 mmHg 50%
13:00 +11°C° 0 mm 7 mps 742 mmHg 48%
14:00 +12°C° 0 mm 7 mps 742 mmHg 47%
15:00 +11°C° 0 mm 6 mps 742 mmHg 50%
16:00 +12°C° 0 mm 5 mps 742 mmHg 54%
17:00 +12°C° 0 mm 4 mps 742 mmHg 57%
18:00 +11°C° 0 mm 3 mps 742 mmHg 60%
19:00 +10°C° 0 mm 3 mps 742 mmHg 63%
20:00 +10°C° 0 mm 3 mps 743 mmHg 66%
21:00 +9°C° 0 mm 3 mps 743 mmHg 68%
22:00 +8°C° 0 mm 3 mps 743 mmHg 71%
23:00 +8°C° 0 mm 2 mps 743 mmHg 74%

Tomorrow, 11 April, Sunday

Time Temperature Precipitation Wind Pressure Humidity
00:00 +7°C° 0 mm 3 mps 743 mmHg 75%
01:00 +7°C° 0 mm 3 mps 744 mmHg 77%
02:00 +5°C° 0 mm 3 mps 744 mmHg 78%
03:00 +5°C° 0 mm 3 mps 744 mmHg 78%
04:00 +5°C° 0 mm 3 mps 744 mmHg 79%
05:00 +5°C° 0 mm 3 mps 745 mmHg 79%
06:00 +7°C° 0 mm 3 mps 745 mmHg 78%
07:00 +7°C° 0 mm 3 mps 745 mmHg 77%
08:00 +8°C° 0 mm 3 mps 746 mmHg 76%
09:00 +9°C° 0 mm 3 mps 746 mmHg 72%
10:00 +11°C° 0 mm 4 mps 746 mmHg 67%
11:00 +12°C° 0 mm 4 mps 747 mmHg 62%
12:00 +13°C° 0 mm 4 mps 747 mmHg 59%
13:00 +14°C° 0 mm 4 mps 747 mmHg 55%
14:00 +15°C° 0 mm 5 mps 747 mmHg 51%
15:00 +15°C° 0 mm 4 mps 747 mmHg 51%
16:00 +15°C° 0 mm 4 mps 747 mmHg 51%
17:00 +15°C° 0 mm 4 mps 747 mmHg 51%
18:00 +13°C° 0 mm 4 mps 747 mmHg 56%
19:00 +11°C° 0 mm 3 mps 747 mmHg 61%
20:00 +10°C° 0 mm 3 mps 747 mmHg 66%
21:00 +9°C° 0 mm 3 mps 747 mmHg 65%
22:00 +8°C° 0 mm 4 mps 747 mmHg 65%
23:00 +7°C° 0 mm 4 mps 747 mmHg 64%

Day after tomorrow, 12 April, Monday

Time Temperature Precipitation Wind Pressure Humidity
00:00 +6°C° 0 mm 4 mps 747 mmHg 66%
01:00 +6°C° 0 mm 4 mps 747 mmHg 67%
02:00 +5°C° 0 mm 3 mps 747 mmHg 68%
03:00 +5°C° 0 mm 4 mps 747 mmHg 68%
04:00 +4°C° 0 mm 4 mps 747 mmHg 68%
05:00 +4°C° 0 mm 4 mps 747 mmHg 68%
06:00 +5°C° 0 mm 4 mps 747 mmHg 66%
07:00 +5°C° 0 mm 5 mps 747 mmHg 64%
08:00 +6°C° 0 mm 5 mps 746 mmHg 62%
09:00 +8°C° 0 mm 6 mps 746 mmHg 56%
10:00 +9°C° 0 mm 6 mps 746 mmHg 50%
11:00 +11°C° 0 mm 7 mps 746 mmHg 44%
12:00 +12°C° 0 mm 7 mps 746 mmHg 42%
13:00 +13°C° 0 mm 6 mps 745 mmHg 40%
14:00 +14°C° 0 mm 6 mps 745 mmHg 38%
15:00 +14°C° 0 mm 6 mps 744 mmHg 40%
16:00 +14°C° 0 mm 5 mps 744 mmHg 43%
17:00 +14°C° 0 mm 4 mps 744 mmHg 45%
18:00 +12°C° 0 mm 4 mps 744 mmHg 50%
19:00 +10°C° 0 mm 3 mps 744 mmHg 56%
20:00 +9°C° 0 mm 3 mps 744 mmHg 61%
21:00 +8°C° 0 mm 3 mps 744 mmHg 62%
22:00 +8°C° 0 mm 3 mps 744 mmHg 62%
23:00 +8°C° 0 mm 3 mps 743 mmHg 63%

13 April, Tuesday

Time Temperature Precipitation Wind Pressure Humidity
00:00 +7°C° 0 mm 3 mps 743 mmHg 64%
01:00 +7°C° 0 mm 3 mps 743 mmHg 65%
02:00 +7°C° 0 mm 3 mps 743 mmHg 65%
03:00 +7°C° 0 mm 3 mps 743 mmHg 67%
04:00 +5°C° 0 mm 3 mps 743 mmHg 69%
05:00 +5°C° 0 mm 3 mps 743 mmHg 71%
06:00 +7°C° 0 mm 3 mps 743 mmHg 70%
07:00 +7°C° 0 mm 3 mps 743 mmHg 69%
08:00 +8°C° 0 mm 3 mps 743 mmHg 68%
09:00 +9°C° 0 mm 3 mps 743 mmHg 65%
10:00 +10°C° 0 mm 3 mps 743 mmHg 62%
11:00 +11°C° 0 mm 3 mps 743 mmHg 59%
12:00 +13°C° 0 mm 3 mps 743 mmHg 54%
13:00 +14°C° 0 mm 3 mps 742 mmHg 50%
14:00 +17°C° 0 mm 3 mps 742 mmHg 45%
15:00 +17°C° 0 mm 3 mps 742 mmHg 47%
16:00 +17°C° 0 mm 2 mps 742 mmHg 48%
17:00 +17°C° 0 mm 2 mps 741 mmHg 49%
18:00 +15°C° 0 mm 1 mps 741 mmHg 54%
19:00 +14°C° 0 mm 1 mps 741 mmHg 58%
20:00 +13°C° 0 mm 1 mps 741 mmHg 62%
21:00 +12°C° 0 mm 1 mps 741 mmHg 65%
22:00 +12°C° 0 mm 1 mps 741 mmHg 68%
23:00 +11°C° 0 mm 1 mps 741 mmHg 71%

14 April, Wednesday

Time Temperature Precipitation Wind Pressure Humidity
00:00 +11°C° 0 mm 1 mps 740 mmHg 73%
01:00 +10°C° 0 mm 1 mps 740 mmHg 76%
02:00 +9°C° 0 mm 2 mps 740 mmHg 78%
03:00 +9°C° 0 mm 2 mps 739 mmHg 81%
04:00 +8°C° 0 mm 2 mps 739 mmHg 85%
05:00 +8°C° 0 mm 2 mps 739 mmHg 89%
06:00 +9°C° 0 mm 2 mps 739 mmHg 87%
07:00 +10°C° 0 mm 2 mps 739 mmHg 86%
08:00 +10°C° 0 mm 2 mps 738 mmHg 84%
09:00 +12°C° 0.2 mm 2 mps 738 mmHg 83%
10:00 +12°C° 0.2 mm 2 mps 738 mmHg 81%
11:00 +13°C° 0.2 mm 2 mps 738 mmHg 79%
12:00 +13°C° 0.4 mm 2 mps 738 mmHg 80%
13:00 +13°C° 0.4 mm 2 mps 738 mmHg 82%
14:00 +11°C° 0.4 mm 3 mps 737 mmHg 83%
15:00 +10°C° 0.7 mm 3 mps 737 mmHg 86%
16:00 +9°C° 0.7 mm 3 mps 737 mmHg 89%
17:00 +7°C° 0.7 mm 4 mps 737 mmHg 93%
18:00 +6°C° 0.9 mm 4 mps 737 mmHg 93%
19:00 +6°C° 0.9 mm 4 mps 737 mmHg 94%
20:00 +5°C° 0.9 mm 4 mps 737 mmHg 95%
21:00 +5°C° 0.9 mm 4 mps 737 mmHg 95%
22:00 +4°C° 0.9 mm 4 mps 737 mmHg 95%
23:00 +4°C° 0.9 mm 4 mps 737 mmHg 95%

15 April, Thursday

Time Temperature Precipitation Wind Pressure Humidity
00:00 +4°C° 0.4 mm 4 mps 737 mmHg 95%
01:00 +4°C° 0.4 mm 3 mps 737 mmHg 96%
02:00 +3°C° 0.4 mm 3 mps 737 mmHg 96%
03:00 +3°C° 0.4 mm 3 mps 737 mmHg 96%
04:00 +4°C° 0.4 mm 3 mps 737 mmHg 96%
05:00 +4°C° 0.4 mm 3 mps 737 mmHg 97%
06:00 +5°C° 0.3 mm 2 mps 737 mmHg 96%
07:00 +5°C° 0.3 mm 2 mps 737 mmHg 95%
08:00 +6°C° 0.3 mm 2 mps 737 mmHg 95%
09:00 +7°C° 0.1 mm 2 mps 737 mmHg 91%
10:00 +8°C° 0.1 mm 2 mps 737 mmHg 88%
11:00 +8°C° 0.1 mm 2 mps 737 mmHg 85%
12:00 +8°C° 0.1 mm 2 mps 737 mmHg 86%
13:00 +8°C° 0.1 mm 2 mps 738 mmHg 87%
14:00 +8°C° 0.1 mm 2 mps 738 mmHg 88%
15:00 +9°C° 0 mm 2 mps 738 mmHg 87%
16:00 +9°C° 0 mm 2 mps 737 mmHg 86%
17:00 +9°C° 0 mm 2 mps 737 mmHg 84%
18:00 +8°C° 0.1 mm 3 mps 737 mmHg 87%
19:00 +7°C° 0.1 mm 4 mps 737 mmHg 90%
20:00 +6°C° 0.1 mm 5 mps 737 mmHg 93%
21:00 +5°C° 0.1 mm 5 mps 737 mmHg 93%
22:00 +4°C° 0.1 mm 6 mps 737 mmHg 93%
23:00 +3°C° 0.1 mm 6 mps 737 mmHg 93%
Show more